Weather History for Provincetown, MA

Change the Weather History Date:

Tuesday, November 6, 2012

  Actual Average Record
Temperature  
Mean Temperature 37 °F -  
Max Temperature 42 °F 50 °F 62 °F (1999)
Min Temperature 33 °F 40 °F 28 °F (2011)
Degree Days  
Heating Degree Days 28    
Moisture  
Dew Point 23 °F    
Average Humidity 55    
Maximum Humidity 70    
Minimum Humidity 45    
Precipitation  
Precipitation 0.00 in - - ()
Sea Level Pressure  
Sea Level Pressure 30.19 in    
Wind  
Wind Speed 9 mph (North)    
Max Wind Speed 14 mph    
Max Gust Speed 20 mph    
Visibility 10 miles    
Events      
Averages and records for this station are not official NWS values.
T = Trace of Precipitation, MM = Missing Value Source: NWS Daily Summary

Daily Weather History Graph

Daily Weather History Graph

Search for Another Location

Airport:

Trip Planner

Search our weather history database for the weather conditions in past years. The results will help you decide how hot, cold, wet, or windy it might be!

Date:

Astronomy

Nov. 06, 2012 Rise Set
Actual Time 6:20 AM EST 4:28 PM EST
Civil Twilight 5:50 AM EST 4:57 PM EST
Nautical Twilight 5:17 AM EST 5:30 PM EST
Astronomical Twilight 4:44 AM EST 6:03 PM EST
Moon 11:05 PM EST (11/6) 12:10 PM EST (11/6)
Length of Visible Light 11h 06m
Length of Day
10h 07m
Waning Gibbous, 53% of the Moon is Illuminated
Nov 6
Waning Gibbous
Nov 6
Last Quarter
Nov 13
New
Nov 20
First Quarter
Nov 28
Full

Hourly Weather History & Observations

Time (EST) Temp. Windchill Dew Point Humidity Pressure Visibility Wind Dir Wind Speed Gust Speed Precip Events Conditions
12:15 AM 39.2 °F 33.0 °F 21.2 °F 49% 30.12 in 9.0 mi NNW 9.2 mph 16.1 mph N/A   Overcast
12:35 AM 37.4 °F 28.9 °F 23.0 °F 56% 30.12 in 10.0 mi NW 13.8 mph 19.6 mph N/A   Overcast
12:55 AM 37.4 °F 29.8 °F 23.0 °F 56% 30.12 in 10.0 mi NNW 11.5 mph 17.3 mph N/A   Overcast
1:15 AM 37.4 °F 29.3 °F 24.8 °F 60% 30.13 in 10.0 mi NNW 12.7 mph 19.6 mph N/A   Overcast
1:35 AM 37.4 °F 29.8 °F 24.8 °F 60% 30.13 in 10.0 mi NW 11.5 mph - N/A   Mostly Cloudy
2:15 AM 37.4 °F 29.8 °F 24.8 °F 60% 30.14 in 10.0 mi NW 11.5 mph 16.1 mph N/A   Mostly Cloudy
2:35 AM 37.4 °F 31.4 °F 24.8 °F 60% 30.14 in 10.0 mi NNW 8.1 mph - N/A   Mostly Cloudy
3:15 AM 37.4 °F 30.8 °F 21.2 °F 52% 30.14 in 9.0 mi NW 9.2 mph - N/A   Overcast
3:35 AM 37.4 °F 29.8 °F 23.0 °F 56% 30.14 in 9.0 mi NW 11.5 mph 17.3 mph N/A   Overcast
3:55 AM 37.4 °F 30.3 °F 23.0 °F 56% 30.15 in 10.0 mi NNW 10.4 mph - N/A   Overcast
4:15 AM 37.4 °F 30.8 °F 23.0 °F 56% 30.15 in 10.0 mi NNW 9.2 mph - N/A   Overcast
4:35 AM 37.4 °F 30.3 °F 24.8 °F 60% 30.15 in 10.0 mi NNW 10.4 mph - N/A   Overcast
4:55 AM 37.4 °F 31.4 °F 21.2 °F 52% 30.16 in 10.0 mi NNW 8.1 mph - N/A   Overcast
5:15 AM 37.4 °F 31.4 °F 21.2 °F 52% 30.16 in 10.0 mi NW 8.1 mph - N/A   Overcast
5:35 AM 35.6 °F 29.2 °F 21.2 °F 56% 30.16 in 9.0 mi NW 8.1 mph - N/A   Overcast
5:55 AM 35.6 °F 27.5 °F 21.2 °F 56% 30.17 in 10.0 mi NNW 11.5 mph - N/A   Mostly Cloudy
6:15 AM 35.6 °F 29.2 °F 21.2 °F 56% 30.17 in 10.0 mi NNW 8.1 mph - N/A   Mostly Cloudy
6:35 AM 35.6 °F 28.0 °F 21.2 °F 56% 30.18 in 9.0 mi NW 10.4 mph - N/A   Mostly Cloudy
6:55 AM 35.6 °F 29.2 °F 21.2 °F 56% 30.19 in 9.0 mi NW 8.1 mph - N/A   Mostly Cloudy
7:15 AM 35.6 °F 28.0 °F 19.4 °F 52% 30.20 in 10.0 mi NW 10.4 mph 18.4 mph N/A   Mostly Cloudy
7:55 AM 37.4 °F 32.8 °F 19.4 °F 48% 30.22 in 9.0 mi NNW 5.8 mph - N/A   Clear
8:15 AM 37.4 °F 30.3 °F 19.4 °F 48% 30.22 in 8.0 mi NW 10.4 mph - N/A   Clear
8:35 AM 39.2 °F 33.0 °F 19.4 °F 45% 30.22 in 9.0 mi NNW 9.2 mph - N/A   Clear
8:55 AM 39.2 °F 32.5 °F 21.2 °F 49% 30.23 in 9.0 mi NNW 10.4 mph - N/A   Clear
9:15 AM 39.2 °F 33.0 °F 21.2 °F 49% 30.23 in 8.0 mi NW 9.2 mph - N/A   Partly Cloudy
9:35 AM 39.2 °F 34.2 °F 21.2 °F 49% 30.23 in 10.0 mi NNW 6.9 mph - N/A   Scattered Clouds
9:55 AM 39.2 °F 33.6 °F 19.4 °F 45% 30.23 in 10.0 mi NNW 8.1 mph - N/A   Clear
10:15 AM 39.2 °F 34.2 °F 21.2 °F 49% 30.24 in 10.0 mi WNW 6.9 mph - N/A   Partly Cloudy
10:35 AM 39.2 °F 32.5 °F 19.4 °F 45% 30.24 in 9.0 mi NW 10.4 mph - N/A   Clear
10:56 AM 39.2 °F 33.6 °F 21.2 °F 49% 30.23 in 10.0 mi NNW 8.1 mph - N/A   Clear
11:15 AM 39.2 °F 35.0 °F 21.2 °F 49% 30.23 in 8.0 mi NNW 5.8 mph - N/A   Clear
11:35 AM 39.2 °F 35.0 °F 21.2 °F 49% 30.23 in 9.0 mi NNW 5.8 mph - N/A   Clear
11:55 AM 39.2 °F 35.0 °F 21.2 °F 49% 30.23 in 10.0 mi North 5.8 mph - N/A   Clear
12:15 PM 39.2 °F 35.9 °F 21.2 °F 49% 30.22 in 10.0 mi WNW 4.6 mph - N/A   Clear
12:35 PM 39.2 °F 35.9 °F 21.2 °F 49% 30.22 in 9.0 mi NW 4.6 mph - N/A   Clear
12:55 PM 39.2 °F 34.2 °F 21.2 °F 49% 30.22 in 8.0 mi NW 6.9 mph - N/A   Clear
1:15 PM 39.2 °F 33.6 °F 21.2 °F 49% 30.21 in 9.0 mi WNW 8.1 mph - N/A   Clear
1:55 PM 39.2 °F 34.2 °F 21.2 °F 49% 30.22 in 10.0 mi NW 6.9 mph - N/A   Clear
2:35 PM 39.2 °F 35.9 °F 21.2 °F 49% 30.21 in 10.0 mi NNW 4.6 mph - N/A   Clear
2:55 PM 39.2 °F 37.0 °F 19.4 °F 45% 30.21 in 9.0 mi North 3.5 mph - N/A   Clear
3:15 PM 39.2 °F 35.9 °F 21.2 °F 49% 30.21 in 10.0 mi North 4.6 mph - N/A   Clear
3:55 PM 37.4 °F 32.8 °F 21.2 °F 52% 30.21 in 10.0 mi NNE 5.8 mph - N/A   Clear
4:15 PM 37.4 °F 32.8 °F 21.2 °F 52% 30.21 in 10.0 mi North 5.8 mph - N/A   Clear
4:35 PM 37.4 °F 33.8 °F 19.4 °F 48% 30.20 in 9.0 mi North 4.6 mph - N/A   Clear
4:55 PM 35.6 °F 32.8 °F 21.2 °F 56% 30.21 in 10.0 mi NE 3.5 mph - N/A   Clear
5:15 PM 37.4 °F 32.8 °F 21.2 °F 52% 30.21 in 10.0 mi NNE 5.8 mph - N/A   Clear
5:55 PM 35.6 °F 29.9 °F 23.0 °F 60% 30.22 in 10.0 mi NE 6.9 mph - N/A   Clear
6:15 PM 35.6 °F 31.7 °F 24.8 °F 65% 30.22 in 9.0 mi NE 4.6 mph - N/A   Clear
6:35 PM 35.6 °F 29.9 °F 23.0 °F 60% 30.22 in 10.0 mi NE 6.9 mph - N/A   Clear
6:55 PM 37.4 °F 32.8 °F 24.8 °F 60% 30.23 in 9.0 mi NE 5.8 mph - N/A   Clear
7:15 PM 35.6 °F 31.7 °F 24.8 °F 65% 30.23 in 10.0 mi ENE 4.6 mph - N/A   Clear
7:36 PM 33.8 °F 30.8 °F 24.8 °F 70% 30.23 in 10.0 mi East 3.5 mph - N/A   Clear
7:55 PM 37.4 °F 30.8 °F 26.6 °F 65% 30.22 in 10.0 mi ENE 9.2 mph - N/A   Clear
8:15 PM 35.6 °F 32.8 °F 24.8 °F 65% 30.22 in 10.0 mi East 3.5 mph - N/A   Clear
8:36 PM 35.6 °F 29.9 °F 26.6 °F 70% 30.22 in 10.0 mi East 6.9 mph - N/A   Partly Cloudy
8:55 PM 35.6 °F 30.7 °F 26.6 °F 70% 30.21 in 9.0 mi East 5.8 mph - N/A   Partly Cloudy
9:15 PM 37.4 °F 30.8 °F 26.6 °F 65% 30.21 in 10.0 mi ENE 9.2 mph - N/A   Partly Cloudy
9:55 PM 37.4 °F 32.1 °F 28.4 °F 70% 30.20 in 10.0 mi East 6.9 mph - N/A   Mostly Cloudy
10:15 PM 39.2 °F 33.0 °F 28.4 °F 65% 30.18 in 10.0 mi East 9.2 mph - N/A   Scattered Clouds
10:35 PM 39.2 °F 31.6 °F 28.4 °F 65% 30.17 in 10.0 mi East 12.7 mph - N/A   Mostly Cloudy
10:55 PM 41.0 °F 35.8 °F 28.4 °F 61% 30.18 in 10.0 mi East 8.1 mph 18.4 mph N/A   Mostly Cloudy
11:15 PM 41.0 °F 34.7 °F 28.4 °F 61% 30.18 in 10.0 mi East 10.4 mph - N/A   Mostly Cloudy
11:55 PM 42.8 °F 36.2 °F 28.4 °F 57% 30.16 in 10.0 mi East 12.7 mph - N/A   Mostly Cloudy